[[{"header":{"parameterUnit":"m.s-1","parameterCategory":1,"la1":30.2991,"la2":30.254,"lo1":-89.0895,"lo2":-89.0444,"dy":0.0017,"dx":0.0017,"nx":28,"ny":28,"refTime":"2024-08-31T21:00:00:Z","depth":0,"parameterNumber":2,"parameterNumberName":"U-component_of_WINDS"},"data":[0,0,0,0,0,0,0,0,0,0,0,0,0,0,0,0,0,0,0,0,0,0,0,0,0,0,0,0,0,0,0,0,0,0,0,0,0,0,0,0,0,0,0,0,0,0,0,0,0,0,0,0,0,0,0,0,0,0,-2.3266,-2.3266,0,-2.3247,-2.3247,-2.3247,-2.3176,-2.3175,-2.3173,-2.3172,-2.3154,-2.3155,-2.3156,0,0,0,0,0,0,0,0,0,0,0,0,0,-2.3244,-2.3244,-2.3267,-2.3266,-2.3266,-2.3247,-2.3247,-2.3247,-2.3177,-2.3175,-2.3173,-2.3171,-2.3153,-2.3154,-2.3156,0,0,0,0,0,0,0,0,0,0,0,0,0,-2.3242,-2.3245,-2.3267,-2.3229,-2.3225,-2.3247,-2.3247,-2.3247,-2.3177,-2.3175,-2.3172,-2.317,-2.3153,-2.3154,-2.3156,-2.3214,0,0,-2.3161,-2.3161,0,0,0,0,0,0,0,0,-2.3242,-2.3243,-2.3234,-2.3231,-2.3227,-2.3212,-2.3232,-2.3236,-2.3178,-2.3195,-2.3171,-2.3169,-2.3175,-2.3175,-2.3176,-2.3213,-2.3212,-2.3161,-2.3162,-2.3162,-2.3163,0,0,0,0,0,0,0,-2.3242,-2.3243,-2.3259,-2.3234,-2.323,-2.3213,-2.321,-2.3233,-2.3199,-2.3194,-2.3188,-2.3187,-2.3173,-2.3175,-2.3175,-2.3212,-2.3161,-2.3162,-2.3163,-2.3164,-2.3296,-2.3298,0,0,0,0,0,0,-2.3248,-2.3244,-2.326,-2.3258,-2.3229,-2.3215,-2.3212,-2.3219,-2.3199,-2.3193,-2.3189,-2.3184,-2.3174,-2.3174,-2.3175,-2.3241,-2.3162,-2.3164,-2.3165,-2.3293,-2.3296,-2.3299,0,0,0,0,0,0,-2.3247,-2.325,-2.326,-2.325,-2.325,-2.3218,-2.3227,-2.322,-2.3222,-2.3195,-2.3189,-2.3198,-2.3172,-2.3172,-2.3205,-2.324,-2.3164,-2.3166,-2.329,-2.3294,-2.3298,-2.3376,0,0,0,0,0,0,-2.3247,-2.325,-2.3271,-2.3251,-2.3251,-2.3291,-2.3229,-2.3221,-2.3225,-2.3218,-2.3202,-2.3197,-2.317,-2.3203,-2.3206,-2.3241,-2.3167,-2.3287,-2.3292,-2.3297,-2.337,-2.3382,-2.3392,0,0,0,0,0,-2.3246,-2.3294,-2.3273,-2.3275,-2.3277,-2.3293,-2.3293,-2.326,-2.3228,-2.325,-2.3232,-2.3197,-2.3235,-2.3207,-2.321,-2.3245,-2.3285,-2.3291,-2.3296,-2.3365,-2.338,-2.3392,0,0,0,0,0,0,-2.3321,-2.3291,-2.3267,-2.3309,-2.3304,-2.3281,-2.3307,-2.3277,-2.3281,-2.3274,-2.3234,-2.3231,-2.327,-2.326,-2.3229,-2.3301,-2.3254,-2.3261,-2.3305,-2.3319,-2.333,-2.3331,-2.3168,0,0,0,0,0,-2.3342,-2.3357,-2.333,-2.337,-2.3369,-2.3339,-2.3344,-2.332,-2.3313,-2.3311,-2.3295,-2.3291,-2.3301,-2.331,-2.3318,-2.3368,-2.3364,-2.3394,-2.3405,-2.3415,-2.3421,-2.3448,-2.3461,-2.3318,-2.3318,-2.3318,0,0,-2.3386,-2.3372,-2.3384,-2.3385,-2.3378,-2.3395,-2.3337,-2.3358,-2.337,-2.3314,-2.3343,-2.3332,-2.3324,-2.3366,-2.3384,-2.336,-2.3459,-2.3422,-2.343,-2.3431,-2.3455,-2.3468,-2.3481,-2.3322,-2.3322,-2.3321,0,0,-2.3475,-2.3466,-2.3498,-2.3492,-2.3482,-2.3462,-2.347,-2.3451,-2.3441,-2.347,-2.3429,-2.3443,-2.3462,-2.3459,-2.3459,-2.3547,-2.3516,-2.3551,-2.3609,-2.3636,-2.3647,-2.3657,-2.3689,-2.3701,-2.3558,-2.3558,-2.3558,0,-2.3531,-2.3555,-2.3519,-2.3542,-2.3544,-2.3493,-2.3527,-2.3523,-2.3517,-2.3519,-2.3492,-2.3516,-2.3507,-2.3547,-2.3569,-2.3571,-2.3579,-2.3553,-2.3648,-2.3657,-2.3666,-2.3696,-2.3708,-2.3562,-2.3562,-2.3561,-2.3561,0,-2.3625,-2.3642,-2.367,-2.3664,-2.3669,-2.3698,-2.3666,-2.3676,-2.3651,-2.3634,-2.3664,-2.3652,-2.3657,-2.3665,-2.3641,-2.3702,-2.3687,-2.3655,-2.3607,-2.3685,-2.3712,-2.3724,-2.3569,-2.3567,-2.3566,-2.3565,0,0,-2.3761,-2.3735,-2.3746,-2.3743,-2.3728,-2.3741,-2.3767,-2.3772,-2.3781,-2.3778,-2.38,-2.3818,-2.3787,-2.3788,-2.3763,-2.3787,-2.3858,-2.3751,-2.375,-2.3772,-2.3925,-2.395,-2.3964,-2.3836,-2.3839,-2.384,-2.3926,0,-2.3846,-2.3888,-2.3857,-2.3905,-2.3921,-2.3873,-2.3896,-2.389,-2.3874,-2.3886,-2.3869,-2.3882,-2.3841,-2.3841,-2.3862,-2.3845,-2.3888,-2.3838,-2.3857,-2.3858,-2.3861,-2.3979,-2.4005,-2.4087,-2.3937,-2.3939,-2.394,0,-2.3951,-2.3953,-2.4003,-2.3985,-2.3991,-2.4012,-2.4014,-2.4025,-2.4017,-2.4004,-2.4005,-2.3975,-2.4,-2.3953,-2.3987,-2.3954,-2.3959,-2.3952,-2.3955,-2.3956,-2.3904,-2.3983,-2.4112,-2.4125,-2.3956,-2.3955,-2.3954,0,-2.4046,-2.4061,-2.4093,-2.4092,-2.4072,-2.4088,-2.408,-2.407,-2.4075,-2.4077,-2.408,-2.4085,-2.4088,-2.4093,-2.4065,-2.4033,-2.4103,-2.4053,-2.4094,-2.4095,-2.4111,-2.411,-2.4243,-2.4114,-2.4114,-2.4114,-2.4113,0,-2.4145,-2.4178,-2.4135,-2.4155,-2.419,-2.4153,-2.419,-2.4177,-2.4169,-2.4185,-2.4144,-2.4161,-2.4123,-2.4136,-2.4114,-2.4146,-2.4148,-2.4139,-2.4133,-2.4143,-2.4144,-2.4146,-2.414,-2.4117,-2.4116,-2.4115,-2.4115,0,-2.4257,-2.423,-2.4261,-2.424,-2.4235,-2.4262,-2.4244,-2.4262,-2.4243,-2.4265,-2.4268,-2.424,-2.4253,-2.4225,-2.4235,-2.422,-2.4266,-2.4251,-2.4269,-2.4264,-2.4306,-2.4303,-2.4446,-2.4463,-2.4322,-2.4324,-2.4325,0,-2.4323,-2.4346,-2.4327,-2.4335,-2.433,-2.4344,-2.4348,-2.4314,-2.432,-2.4314,-2.4332,-2.4342,-2.4348,-2.4372,-2.4352,-2.436,-2.4345,-2.4394,-2.4346,-2.4355,-2.4346,-2.4345,-2.4348,-2.4404,-2.4406,-2.4407,-2.4409,0,-2.4442,-2.4427,-2.4435,-2.4439,-2.4445,-2.4447,-2.4445,-2.4454,-2.4417,-2.4427,-2.444,-2.4445,-2.4454,-2.4465,-2.4468,-2.446,-2.4429,-2.4424,-2.4434,-2.4445,-2.4454,-2.445,-2.4297,-2.4421,-2.442,-2.4419,-2.4418,-2.4418,-2.4533,-2.4552,-2.4541,-2.4552,-2.4547,-2.4547,-2.4562,-2.4546,-2.4556,-2.456,-2.4539,-2.4557,-2.4549,-2.455,-2.4546,-2.456,-2.4538,-2.4552,-2.4555,-2.4559,-2.4567,-2.4452,-2.456,-2.456,-2.4559,-2.4559,-2.4559,0,-2.465,-2.4641,-2.4651,-2.465,-2.4658,-2.4627,-2.4624,-2.4633,-2.4649,-2.4644,-2.4651,-2.4666,-2.4676,-2.4658,-2.4665,-2.468,-2.4665,-2.4683,-2.4682,-2.4681,-2.4586,-2.4577,-2.4694,-2.4694,-2.4694,-2.4694,-2.4694,-2.4694,-2.4712,-2.4743,-2.4727,-2.4756,-2.4746,-2.4763,-2.4764,-2.4763,-2.4759,-2.4778,-2.4786,-2.4773,-2.4763,-2.4769,-2.4777,-2.4772,-2.4776,-2.4799,-2.4789,-2.47,-2.4687,-2.4675,-2.4666,-2.48,-2.4801,-2.4882,-2.4883,-2.4884]},{"header":{"parameterUnit":"m.s-1","parameterCategory":1,"la1":30.2991,"la2":30.254,"lo1":-89.0895,"lo2":-89.0444,"dy":0.0017,"dx":0.0017,"nx":28,"ny":28,"refTime":"2024-08-31T21:00:00:Z","depth":0,"parameterNumber":3,"parameterNumberName":"V-component_of_WINDS"},"data":[0,0,0,0,0,0,0,0,0,0,0,0,0,0,0,0,0,0,0,0,0,0,0,0,0,0,0,0,0,0,0,0,0,0,0,0,0,0,0,0,0,0,0,0,0,0,0,0,0,0,0,0,0,0,0,0,0,0,-1.6235,-1.6235,0,-1.6198,-1.6198,-1.6197,-1.6156,-1.6156,-1.6155,-1.6155,-1.6114,-1.6114,-1.6113,0,0,0,0,0,0,0,0,0,0,0,0,0,-1.627,-1.6269,-1.6235,-1.6235,-1.6234,-1.6198,-1.6197,-1.6197,-1.6156,-1.6156,-1.6155,-1.6154,-1.6114,-1.6114,-1.6113,0,0,0,0,0,0,0,0,0,0,0,0,0,-1.6246,-1.6269,-1.6235,-1.621,-1.6207,-1.6198,-1.6197,-1.6197,-1.6157,-1.6156,-1.6155,-1.6154,-1.6115,-1.6114,-1.6113,-1.6125,0,0,-1.6111,-1.611,0,0,0,0,0,0,0,0,-1.6247,-1.6244,-1.6214,-1.6212,-1.6209,-1.6181,-1.6195,-1.6173,-1.6157,-1.6176,-1.6155,-1.6154,-1.6137,-1.6134,-1.6129,-1.6123,-1.6122,-1.611,-1.611,-1.611,-1.6109,0,0,0,0,0,0,0,-1.6249,-1.6246,-1.622,-1.6214,-1.621,-1.62,-1.6195,-1.619,-1.6162,-1.6174,-1.6171,-1.6167,-1.6135,-1.613,-1.6128,-1.6121,-1.611,-1.611,-1.6109,-1.6109,-1.6124,-1.6124,0,0,0,0,0,0,-1.6255,-1.6248,-1.6222,-1.6219,-1.6226,-1.62,-1.6195,-1.6191,-1.6162,-1.6156,-1.6168,-1.6165,-1.6132,-1.6129,-1.6126,-1.6139,-1.611,-1.6109,-1.6108,-1.6123,-1.6124,-1.6125,0,0,0,0,0,0,-1.6256,-1.6253,-1.6223,-1.6233,-1.6228,-1.62,-1.6196,-1.619,-1.6185,-1.6157,-1.6151,-1.6168,-1.6131,-1.6127,-1.6126,-1.6137,-1.6108,-1.6108,-1.6122,-1.6123,-1.6124,-1.6165,0,0,0,0,0,0,-1.6257,-1.6253,-1.6258,-1.6233,-1.6228,-1.6225,-1.6196,-1.619,-1.6184,-1.618,-1.6156,-1.6151,-1.613,-1.6127,-1.6125,-1.6135,-1.6107,-1.6121,-1.6122,-1.6124,-1.6162,-1.6167,-1.6172,0,0,0,0,0,-1.6258,-1.6271,-1.6259,-1.6256,-1.6234,-1.6225,-1.6222,-1.6199,-1.6185,-1.619,-1.6171,-1.6151,-1.6136,-1.6128,-1.6125,-1.6135,-1.612,-1.6122,-1.6124,-1.616,-1.6166,-1.6172,0,0,0,0,0,0,-1.6298,-1.6267,-1.6253,-1.6259,-1.6245,-1.6218,-1.6224,-1.6206,-1.6195,-1.6192,-1.6163,-1.6158,-1.616,-1.6147,-1.6138,-1.6145,-1.6125,-1.6126,-1.6154,-1.6159,-1.6164,-1.6167,-1.6106,0,0,0,0,0,-1.6307,-1.6304,-1.6277,-1.6284,-1.6278,-1.6252,-1.6247,-1.6231,-1.6215,-1.6209,-1.619,-1.6175,-1.6167,-1.6162,-1.6153,-1.616,-1.6154,-1.6165,-1.617,-1.6174,-1.6176,-1.6178,-1.6183,-1.6131,-1.6131,-1.6131,0,0,-1.6326,-1.6309,-1.6309,-1.6291,-1.6279,-1.6275,-1.6247,-1.6245,-1.6242,-1.6208,-1.6206,-1.6192,-1.6173,-1.6176,-1.6176,-1.6166,-1.6189,-1.6176,-1.618,-1.6179,-1.6181,-1.6186,-1.619,-1.6132,-1.6132,-1.6132,0,0,-1.636,-1.6346,-1.6351,-1.6339,-1.6321,-1.6303,-1.6304,-1.628,-1.627,-1.6268,-1.6242,-1.6238,-1.6224,-1.6212,-1.6204,-1.6232,-1.6213,-1.623,-1.6254,-1.6257,-1.6261,-1.6265,-1.6275,-1.6279,-1.6232,-1.6232,-1.6232,0,-1.6386,-1.6381,-1.6355,-1.6355,-1.6348,-1.6317,-1.6322,-1.6311,-1.629,-1.6286,-1.6274,-1.6256,-1.6241,-1.6241,-1.6248,-1.6242,-1.6242,-1.6233,-1.6263,-1.6266,-1.6269,-1.6279,-1.6283,-1.6234,-1.6234,-1.6233,-1.6233,0,-1.6414,-1.641,-1.6416,-1.6398,-1.6391,-1.6392,-1.6367,-1.6363,-1.6347,-1.633,-1.6328,-1.6309,-1.6296,-1.6294,-1.6278,-1.6291,-1.6285,-1.6268,-1.6248,-1.6277,-1.6285,-1.6289,-1.6237,-1.6236,-1.6236,-1.6235,0,0,-1.6472,-1.6439,-1.6442,-1.6433,-1.641,-1.6407,-1.6407,-1.6394,-1.6392,-1.6378,-1.6377,-1.6366,-1.635,-1.6341,-1.6323,-1.6325,-1.6349,-1.6308,-1.6307,-1.6317,-1.6363,-1.6377,-1.6381,-1.6336,-1.6337,-1.6337,-1.6365,0,-1.6502,-1.6501,-1.6478,-1.6483,-1.648,-1.645,-1.645,-1.6436,-1.642,-1.6414,-1.6397,-1.639,-1.6369,-1.6364,-1.6365,-1.6346,-1.6358,-1.6344,-1.6335,-1.6335,-1.6341,-1.6386,-1.64,-1.6427,-1.6368,-1.6369,-1.6369,0,-1.6537,-1.6526,-1.6532,-1.6508,-1.6506,-1.6506,-1.6493,-1.6488,-1.647,-1.6459,-1.6449,-1.6428,-1.6425,-1.6405,-1.6401,-1.6392,-1.6386,-1.6377,-1.6377,-1.6376,-1.6354,-1.6386,-1.6435,-1.6439,-1.6374,-1.6374,-1.6373,0,-1.658,-1.6566,-1.6568,-1.6561,-1.6534,-1.6535,-1.6523,-1.6505,-1.6499,-1.6487,-1.6483,-1.647,-1.6463,-1.6454,-1.643,-1.6417,-1.6428,-1.6406,-1.6418,-1.6419,-1.6423,-1.6423,-1.6472,-1.6418,-1.6418,-1.6418,-1.6418,0,-1.6616,-1.6621,-1.6587,-1.6588,-1.6591,-1.6564,-1.6569,-1.6554,-1.6538,-1.6535,-1.6509,-1.6506,-1.6475,-1.6468,-1.645,-1.6449,-1.6446,-1.6436,-1.6431,-1.6439,-1.6441,-1.6436,-1.6434,-1.6419,-1.6419,-1.6419,-1.6419,0,-1.6665,-1.6642,-1.6642,-1.6616,-1.661,-1.6614,-1.6592,-1.6591,-1.6574,-1.657,-1.6568,-1.654,-1.6532,-1.6507,-1.6491,-1.6479,-1.6484,-1.6474,-1.649,-1.6487,-1.6501,-1.65,-1.6549,-1.6554,-1.6497,-1.6498,-1.6498,0,-1.669,-1.6693,-1.6668,-1.6664,-1.6654,-1.6649,-1.6642,-1.6616,-1.661,-1.659,-1.6592,-1.6581,-1.6571,-1.6559,-1.6537,-1.6525,-1.6515,-1.6533,-1.6513,-1.6521,-1.6516,-1.6516,-1.6516,-1.6538,-1.6538,-1.6539,-1.6539,0,-1.6737,-1.6726,-1.6718,-1.6707,-1.67,-1.669,-1.6677,-1.6676,-1.6646,-1.6641,-1.6632,-1.6624,-1.6609,-1.6598,-1.6583,-1.657,-1.655,-1.6546,-1.6548,-1.6556,-1.6566,-1.6561,-1.6503,-1.6545,-1.6544,-1.6544,-1.6544,-1.6543,-1.6775,-1.6776,-1.6759,-1.6751,-1.6739,-1.6728,-1.6727,-1.6709,-1.6702,-1.6688,-1.6672,-1.6665,-1.6647,-1.6624,-1.6613,-1.6606,-1.6595,-1.6599,-1.6599,-1.6601,-1.6605,-1.6566,-1.6603,-1.6603,-1.6603,-1.6602,-1.6602,0,-1.6821,-1.6809,-1.6802,-1.6786,-1.678,-1.6762,-1.6747,-1.6743,-1.6737,-1.6722,-1.6713,-1.6703,-1.6693,-1.667,-1.6657,-1.6656,-1.6647,-1.6654,-1.6654,-1.6651,-1.6615,-1.6614,-1.6662,-1.6662,-1.6662,-1.6662,-1.6662,-1.6662,-1.6845,-1.6846,-1.6832,-1.6827,-1.6814,-1.6807,-1.6801,-1.679,-1.6778,-1.6768,-1.676,-1.6745,-1.6727,-1.6713,-1.6702,-1.6696,-1.6692,-1.6703,-1.6693,-1.666,-1.6654,-1.6649,-1.6648,-1.6702,-1.6702,-1.6731,-1.6731,-1.6731]}]]